Theta_e
291 294 292 290 289 289 291 291 289 291 293 298 292 292 293 295 295 294 295 296 297 297 296 296 296 297 297 297 298 298 298 298 297 296 296 296 295 295 295 295 295 295 295 294
289 295 293 290 289 288 287 285 287 286 288 296 297 296 293 295 296 295 296 297 296 297 296 296 296 296 297 298 298 298 298 298 298 297 296 295 295 295 294 294 294 294 294 294
281 290 290 284 287 285 285 286 284 283 286 290 291 292 293 295 296 296 296 296 296 297 296 296 297 297 296 297 297 297 297 298 298 298 297 296 296 295 295 294 294 294 294 294
281 284 278 284 293 290 286 287 286 286 287 289 290 292 294 297 296 296 296 297 297 297 296 296 297 296 296 296 297 297 297 297 298 297 297 296 296 295 295 294 294 294 294 294
279 281 286 289 292 291 289 284 289 288 289 289 292 293 292 295 296 295 297 296 296 296 295 294 296 296 296 296 296 296 296 296 297 297 296 295 294 294 294 293 293 293 293 294
285 280 278 285 292 297 294 278 291 292 293 293 293 287 291 296 297 295 296 296 295 296 295 295 296 296 296 296 295 295 297 297 298 298 297 296 295 294 293 293 293 294 294 295
281 282 283 291 294 297 281 279 292 295 295 294 292 294 297 299 296 296 296 296 296 295 295 296 296 295 295 295 295 297 298 299 299 299 297 297 296 294 294 294 293 293 293 294
278 275 272 292 292 287 291 292 294 295 296 296 297 298 298 298 294 294 294 296 296 294 295 295 295 295 295 294 297 298 298 298 298 298 298 298 295 296 295 294 292 293 292 293
280 280 291 292 290 292 293 293 294 293 293 295 293 292 294 293 293 294 294 295 295 294 294 294 295 295 295 296 297 298 297 297 297 297 297 297 296 295 294 294 292 292 292 292
283 287 291 294 295 296 296 297 298 295 293 293 291 292 292 292 292 293 293 292 294 293 293 294 295 296 295 298 298 297 296 296 296 295 296 296 296 295 294 294 293 293 293 292
284 288 291 292 293 296 297 297 296 297 295 294 293 292 292 292 292 293 294 295 295 294 294 295 297 296 297 298 298 296 296 296 296 297 296 296 297 296 294 295 294 293 293 291
282 289 288 289 292 295 294 295 296 296 296 297 295 294 294 293 293 293 293 294 294 294 294 296 296 297 298 299 300 298 298 298 297 297 297 298 297 297 294 294 293 293 292 292
289 292 292 293 295 297 295 296 297 296 296 295 296 295 295 294 294 294 294 294 294 294 295 295 296 296 298 299 300 298 297 298 299 299 299 298 298 298 296 296 295 294 291 290
293 293 291 295 293 297 297 300 301 300 299 299 298 297 296 294 294 295 295 295 296 297 297 296 296 297 300 303 303 302 302 298 299 299 299 299 299 298 298 294 292 292 290 289
294 294 293 295 297 298 299 299 299 300 300 301 301 301 300 300 299 299 299 299 299 299 300 300 300 300 302 303 302 303 302 302 301 300 300 300 299 298 297 294 290 288 288 288
296 297 299 297 297 298 299 298 297 297 298 298 298 300 301 300 300 300 300 300 299 298 298 297 297 299 302 302 301 299 299 297 297 301 299 297 297 293 289 288 288 287 286 286
295 294 295 295 296 296 296 296 297 297 298 297 298 299 300 300 299 299 298 299 298 297 298 297 298 299 301 301 299 298 298 300 290 295 296 295 291 289 288 288 287 287 286 286
300 299 297 297 296 296 296 298 298 298 299 300 301 301 300 298 297 297 298 297 298 298 299 299 299 299 300 300 299 298 297 295 295 296 293 290 289 288 288 288 288 287 287 286
300 298 299 299 298 298 299 299 299 301 302 301 301 300 299 298 298 298 297 296 297 296 296 297 297 299 299 298 296 296 295 295 295 293 291 286 288 288 288 288 288 287 287 287
300 300 300 299 301 300 300 301 301 301 301 300 300 298 297 298 298 298 297 296 297 297 297 297 299 299 298 298 294 295 294 294 293 291 289 289 288 288 288 285 288 288 287 287
301 301 300 300 300 301 302 302 301 300 300 300 299 298 298 298 298 298 296 295 297 297 297 296 296 297 297 293 293 296 295 294 293 290 289 289 288 288 288 288 287 288 287 287
302 300 299 299 298 299 300 300 300 300 299 299 299 299 298 297 297 297 297 296 297 288 295 296 295 291 293 284 295 295 295 294 293 291 289 289 289 288 288 288 288 288 288 288
302 301 300 298 298 298 299 299 299 299 298 298 297 296 296 297 297 295 295 299 297 293 296 297 291 285 283 288 294 295 295 295 294 291 290 289 290 289 288 288 288 288 287 288
303 301 299 299 299 298 297 298 298 299 299 299 298 298 298 297 296 297 298 292 289 290 294 296 291 285 282 291 293 294 294 295 294 293 291 287 290 289 289 289 289 290 289 287
302 301 301 298 298 298 299 299 298 298 298 298 298 299 300 299 298 299 297 297 289 290 295 289 288 287 290 292 293 293 294 295 295 293 291 291 290 290 290 290 289 289 289 288
301 301 299 299 298 299 299 298 298 297 297 297 298 299 299 299 299 299 299 295 298 292 295 296 296 294 294 294 294 294 294 294 293 292 291 291 290 290 289 289 289 289 287 286
299 297 300 299 299 298 298 297 297 297 297 297 298 300 300 299 299 296 294 298 298 297 297 296 296 293 295 296 295 294 295 293 290 290 290 290 289 288 287 287 286 285 284 283
Wind_Speed
1 1 4 3 3 6 3 2 4 4 9 9 17 16 13 9 12 16 14 12 12 10 6 5 5 4 5 4 4 5 5 4 5 5 4 4 3 2 3 3 3 3 3 3
5 4 9 3 6 1 4 4 4 8 9 7 5 9 10 14 15 15 13 14 11 9 6 6 5 5 4 4 4 5 6 4 4 5 4 5 4 4 4 4 5 4 4 5
6 4 4 2 1 2 4 4 4 3 5 8 6 9 12 14 14 15 13 11 11 11 10 7 7 7 6 6 5 5 5 4 4 4 6 6 5 4 5 6 5 6 6 5
4 3 4 3 2 6 7 4 5 4 6 9 10 11 10 9 15 14 12 12 12 10 7 6 4 4 5 5 5 4 4 5 4 5 5 4 4 6 6 4 5 5 6 6
2 2 3 3 4 3 3 5 5 5 7 7 13 17 13 11 12 8 2 5 6 5 5 5 6 6 6 5 5 4 5 5 5 5 5 4 6 6 5 4 4 5 6 7
3 3 5 3 7 6 2 3 5 6 9 8 6 7 3 7 6 3 4 4 4 5 4 6 5 6 6 5 6 6 6 6 6 6 5 6 5 5 4 4 6 4 7 6
4 2 2 4 11 6 4 5 3 8 5 8 7 3 1 4 2 4 5 7 7 7 7 6 6 6 6 6 6 7 6 5 5 5 6 6 4 3 4 5 5 6 6 7
3 4 5 5 5 3 1 1 4 4 5 5 3 8 9 7 7 6 5 5 5 5 5 5 6 6 6 7 9 6 4 5 6 6 5 3 6 6 5 4 5 6 5 6
5 6 5 4 2 1 3 2 1 1 2 4 4 5 8 6 6 5 6 5 4 6 5 5 5 6 6 10 5 6 5 8 7 6 6 5 5 7 4 4 4 5 4 4
3 4 4 0 1 3 3 2 3 4 4 4 5 6 5 4 5 5 5 6 5 5 6 6 7 8 10 9 6 6 8 8 7 7 9 6 5 5 4 3 3 4 4 4
3 5 4 4 3 1 2 2 4 5 5 6 5 5 6 5 6 6 5 5 4 6 6 10 6 6 7 11 6 7 8 9 9 8 8 8 5 5 4 4 3 4 6 3
6 7 5 6 3 1 2 2 4 4 4 5 7 7 5 6 6 6 6 5 5 7 7 11 7 8 9 7 5 8 9 7 7 6 5 4 3 3 8 7 3 2 8 9
4 4 5 3 4 3 3 4 3 4 4 3 5 6 4 5 3 6 6 6 8 11 8 7 8 7 8 6 5 6 6 7 5 4 4 3 3 3 2 3 3 6 7 4
5 6 2 4 5 3 4 1 4 4 3 3 3 2 4 5 4 5 5 6 6 6 7 5 6 6 5 4 2 3 3 7 4 4 5 3 3 1 1 1 2 2 4 2
7 4 3 2 1 3 3 2 3 3 2 2 4 5 5 3 4 4 3 3 4 2 3 3 4 5 4 3 4 4 4 4 2 2 2 2 3 3 2 1 1 2 3 3
5 4 2 2 2 2 1 3 3 5 5 3 4 6 7 4 3 4 3 1 1 3 3 3 4 4 3 3 3 3 3 4 2 2 3 2 1 3 2 1 1 2 2 2
5 2 3 5 6 6 7 5 6 4 3 4 6 6 6 5 4 2 2 0 1 3 3 3 4 4 4 3 3 2 1 1 4 3 3 3 2 3 2 0 2 2 3 3
6 5 6 6 5 6 6 6 6 6 5 6 6 4 4 5 5 3 2 1 2 3 1 2 4 4 2 2 2 1 1 3 2 3 3 4 3 3 1 0 1 3 3 3
9 8 7 7 7 6 6 6 6 7 6 6 4 6 5 3 2 4 3 2 2 2 3 3 5 1 1 1 2 1 2 2 2 2 3 4 3 2 2 2 2 3 3 4
5 5 7 8 6 7 7 6 6 6 5 4 4 4 4 5 5 4 4 4 5 5 3 3 2 2 2 2 3 2 2 2 2 2 3 3 3 3 4 5 4 3 3 4
7 7 7 7 7 7 8 7 7 7 5 5 5 5 5 5 5 5 4 3 6 6 5 5 4 2 2 2 2 2 2 3 3 4 5 5 4 5 5 5 5 4 4 4
5 6 8 7 7 7 7 6 6 3 5 4 4 4 4 6 5 5 5 6 3 5 4 4 3 5 3 4 3 4 4 5 5 5 5 6 5 4 5 5 6 5 5 5
7 5 8 7 7 7 4 5 6 6 6 6 6 6 6 5 4 4 5 6 6 7 5 5 6 7 8 5 4 5 6 7 6 5 5 5 5 4 5 6 6 5 4 4
7 9 10 7 6 5 6 7 7 7 6 6 7 7 6 4 4 5 6 4 6 6 7 7 7 9 9 5 5 5 6 7 6 5 5 6 5 5 5 4 5 5 4 3
6 4 3 6 6 8 8 6 5 5 6 7 7 7 7 5 7 3 4 6 7 6 6 8 10 10 7 6 6 7 6 6 6 5 4 4 4 2 3 4 4 4 3 4
4 1 3 6 5 2 4 3 6 4 3 6 5 6 6 5 5 6 6 7 7 6 6 5 6 7 7 6 6 6 6 5 3 1 0 0 1 2 3 3 3 3 3 4
4 4 2 3 3 4 4 4 5 6 6 6 7 5 6 4 5 6 6 6 6 6 6 5 4 4 4 4 3 4 2 3 4 5 5 5 4 3 4 4 5 5 5 6
Wind_Direction
298 26 102 130 332 340 247 322 211 354 257 264 204 201 174 155 138 136 132 127 141 144 156 144 140 141 126 134 147 138 130 169 172 167 168 171 172 182 241 243 231 241 252 255
266 180 258 288 352 72 44 355 317 342 300 317 193 131 139 149 146 133 143 140 136 132 133 161 159 160 151 141 144 136 144 185 162 164 185 208 213 212 229 254 255 244 250 257
261 222 120 124 117 25 109 35 264 302 324 321 55 119 134 139 142 137 139 137 149 168 167 162 168 161 170 154 158 154 140 188 171 187 212 223 220 230 243 250 246 255 266 271
277 354 233 134 68 94 97 17 350 339 6 55 77 73 64 122 132 132 141 162 180 173 160 149 147 143 139 151 159 155 177 191 192 200 211 229 226 239 249 247 256 272 277 269
349 339 96 137 39 17 12 31 9 28 35 77 97 81 45 45 58 54 132 155 160 154 141 142 157 157 151 150 159 173 203 212 223 219 229 219 230 241 248 253 267 259 256 270
347 24 17 317 294 299 179 17 26 65 52 46 71 89 71 32 51 57 134 131 133 129 123 153 162 161 154 163 185 206 209 221 224 213 218 238 242 257 251 234 253 265 284 255
8 35 4 303 316 306 61 236 155 82 58 64 69 99 192 139 212 199 157 155 153 159 169 184 164 163 184 191 210 218 216 225 241 233 222 226 243 226 245 264 267 270 269 283
10 45 338 352 347 45 203 290 163 172 185 201 152 178 195 190 207 190 161 149 165 158 188 199 187 181 202 215 228 224 224 237 243 246 235 224 226 248 247 265 267 269 269 285
153 214 254 257 211 205 199 134 138 187 233 219 157 176 159 183 187 189 175 179 178 189 209 227 217 203 214 240 227 231 232 243 245 243 241 233 230 235 236 230 240 271 274 285
49 279 286 71 184 187 185 141 175 173 160 149 134 154 178 173 196 211 201 196 196 196 223 244 222 211 223 248 228 217 236 248 256 243 256 244 235 243 256 286 290 275 283 280
257 283 313 306 275 245 197 195 124 169 177 177 165 201 205 211 214 221 225 222 199 211 228 245 251 244 238 246 233 236 244 251 253 250 253 265 246 241 203 195 189 307 300 311
226 219 164 242 250 237 161 209 215 187 187 205 191 214 209 236 224 218 228 228 237 237 237 253 241 243 257 252 225 244 261 261 257 261 258 244 236 238 213 206 215 201 299 272
234 186 185 258 230 249 218 221 220 224 236 246 230 219 206 230 243 237 233 224 228 238 240 253 261 262 266 255 234 232 239 257 259 260 269 247 223 230 261 233 280 258 271 289
204 143 143 189 216 207 236 134 108 114 132 113 297 228 217 212 241 238 266 264 266 257 260 261 262 275 278 280 269 271 243 235 259 292 254 214 204 190 162 199 281 306 255 328
203 223 216 262 294 55 90 157 156 193 241 242 148 228 242 237 277 257 288 303 290 305 308 339 329 301 328 330 291 276 274 277 279 258 214 140 129 144 180 271 313 282 310 334
210 235 183 198 246 210 234 255 246 260 269 279 243 233 258 297 303 304 306 190 2 309 315 300 281 272 291 306 312 317 316 291 203 171 113 121 116 116 112 88 320 303 299 301
132 236 239 259 234 239 229 227 208 217 249 233 237 242 245 255 262 251 270 281 282 274 269 269 274 297 307 331 349 350 13 97 102 120 129 121 130 122 127 333 331 322 308 290
204 219 198 200 209 217 229 230 218 227 229 237 231 242 213 187 216 239 244 233 284 322 342 318 297 301 326 24 59 79 129 138 152 142 133 137 149 144 150 210 292 302 310 297
205 213 220 215 218 210 213 218 215 222 229 231 245 229 206 231 215 216 195 213 276 291 264 304 302 335 265 116 110 119 142 158 144 142 157 151 152 170 210 233 245 272 297 300
253 217 214 232 223 209 224 225 211 225 232 175 181 197 224 229 215 204 193 221 224 215 199 255 239 243 228 227 179 177 176 170 170 177 180 196 208 222 234 242 247 268 293 300
264 256 246 235 241 231 219 218 206 228 204 184 196 225 231 254 222 198 188 227 256 215 205 205 212 220 207 225 223 220 215 204 212 214 211 212 227 238 243 249 259 265 281 286
264 262 250 252 226 228 225 216 204 176 170 219 223 232 227 239 221 223 221 211 239 209 201 204 204 207 205 190 209 205 218 228 226 217 219 226 229 230 248 256 260 261 261 278
269 257 245 232 222 215 168 199 201 189 199 214 218 217 221 228 201 199 251 232 227 216 210 219 200 190 200 208 218 225 229 227 233 226 223 221 231 237 248 253 251 244 250 278
269 268 239 230 151 171 189 213 204 206 211 213 217 211 209 229 255 223 244 232 229 221 224 227 211 201 201 212 213 217 224 228 227 224 232 226 223 232 245 266 269 270 256 268
256 276 176 195 190 212 200 198 218 228 223 228 225 224 218 202 207 230 214 237 230 221 231 227 223 216 215 217 220 228 230 226 226 209 217 225 233 246 270 287 288 277 256 267
236 193 208 217 196 225 267 183 221 202 201 242 239 227 229 209 217 236 241 243 245 226 235 237 228 223 223 227 233 240 244 251 224 195 173 79 35 3 337 339 340 328 317 313
228 236 232 242 219 199 195 229 233 241 216 223 237 222 218 206 216 231 241 251 249 246 238 241 250 233 229 234 231 259 235 143 116 123 140 109 84 64 42 19 348 337 330 323